Location: ???? ?????????
(31.1304°N, 31.7111°E)
Time: 16:17:12
(UTC+00:00)

A-11 Canister half - All Passes

Search period start: 26 February 2021 00:00
Search period end: 08 March 2021 00:00
Orbit: 1524 x 1684 km, 47.3° (Epoch: 25 February)

Date Brightness Start Highest point End Pass type
(mag) Time Alt. Az. Time Alt. Az. Time Alt. Az.
26 Feb - 00:34:38 10° S 00:41:44 23° SE 00:48:40 10° ENE visible
26 Feb - 02:36:12 10° SW 02:45:57 87° SE 02:55:24 10° NE visible
26 Feb - 04:43:06 10° W 04:51:48 38° NNW 05:00:20 10° NE daylight
26 Feb - 06:51:21 10° NW 06:59:16 29° N 07:07:05 10° ENE daylight
26 Feb - 08:57:09 10° NW 09:06:12 52° NNE 09:15:15 10° ESE daylight
26 Feb - 11:02:18 10° WNW 11:11:13 53° SW 11:20:16 10° SSE daylight
27 Feb - 00:13:20 10° S 00:20:08 21° SE 00:26:45 10° E visible
27 Feb - 02:14:31 10° SW 02:24:17 83° SE 02:33:45 10° NE visible
27 Feb - 04:21:16 10° W 04:30:04 39° NNW 04:38:41 10° NE daylight
27 Feb - 06:29:35 10° NW 06:37:29 29° N 06:45:18 10° ENE daylight
27 Feb - 08:35:30 10° NW 08:44:30 50° NNE 08:53:29 10° ESE daylight
27 Feb - 10:40:36 10° WNW 10:49:36 56° SW 10:58:42 10° SSE daylight
27 Feb - 12:52:49 10° WSW 12:53:18 10° WSW 12:53:48 10° SW daylight
27 Feb - 23:52:04 10° SSE 23:58:31 20° SE 00:04:50 10° E visible
28 Feb - 01:52:51 10° SW 02:02:37 80° SE 02:12:06 10° NE visible
28 Feb - 03:59:26 10° W 04:08:19 41° NNW 04:17:01 10° NE visible
28 Feb - 06:07:48 10° NW 06:15:42 29° N 06:23:31 10° ENE daylight
28 Feb - 08:13:50 10° NW 08:22:48 48° NNE 08:31:43 10° E daylight
28 Feb - 10:18:54 10° WNW 10:27:58 60° SW 10:37:09 10° SSE daylight
28 Feb - 12:29:11 10° WSW 12:31:43 11° WSW 12:34:17 10° SW daylight
28 Feb - 23:30:50 10° SSE 23:36:54 18° SE 23:42:51 10° E visible
01 Mar - 01:31:12 10° SW 01:40:59 76° SE 01:50:26 10° NE visible
01 Mar - 03:37:36 10° W 03:46:35 42° NNW 03:55:22 10° NE visible
01 Mar - 05:46:01 10° NW 05:53:56 29° N 06:01:45 10° ENE daylight
01 Mar - 07:52:11 10° NW 08:01:05 47° NNE 08:09:57 10° E daylight
01 Mar - 09:57:14 10° WNW 10:06:21 63° SW 10:15:34 10° SSE daylight
01 Mar - 12:06:36 10° W 12:10:07 13° WSW 12:13:40 10° SW daylight
01 Mar - 23:09:40 10° SSE 23:15:18 17° SE 23:20:50 10° E visible
02 Mar - 01:09:33 10° SW 01:19:19 72° SE 01:28:46 10° NE visible
02 Mar - 03:15:47 10° W 03:24:51 44° NNW 03:33:43 10° NE visible
02 Mar - 05:24:14 10° WNW 05:32:09 29° N 05:39:58 10° ENE daylight
02 Mar - 07:30:31 10° NW 07:39:22 45° NNE 07:48:11 10° E daylight
02 Mar - 09:35:33 10° NW 09:44:43 67° SW 09:53:58 10° SE daylight
02 Mar - 11:44:18 10° W 11:48:32 14° WSW 11:52:48 10° SSW daylight
02 Mar - 22:48:33 10° SSE 22:53:41 15° ESE 22:58:44 10° E visible
03 Mar - 00:47:54 10° SW 00:57:40 69° SE 01:07:06 10° NE visible
03 Mar - 02:53:57 10° W 03:03:08 45° NNW 03:12:04 10° NE visible
03 Mar - 05:02:26 10° WNW 05:10:23 29° N 05:18:13 10° ENE daylight
03 Mar - 07:08:51 10° NW 07:17:40 43° NNE 07:26:24 10° E daylight
03 Mar - 09:13:52 10° NW 09:23:06 70° SW 09:32:22 10° SE daylight
03 Mar - 11:22:08 10° W 11:26:57 15° WSW 11:31:49 10° SSW daylight
03 Mar - 22:27:32 10° SSE 22:32:05 14° ESE 22:36:33 10° E visible
04 Mar - 00:26:17 10° SW 00:36:01 65° SE 00:45:26 10° NE visible
04 Mar - 02:32:08 10° W 02:41:24 47° NNW 02:50:25 10° NE visible
04 Mar - 04:40:36 10° WNW 04:48:36 29° N 04:56:27 10° NE daylight
04 Mar - 06:47:10 10° NW 06:55:56 42° NNE 07:04:36 10° E daylight
04 Mar - 08:52:12 10° NW 09:01:28 74° SW 09:10:46 10° SE daylight
04 Mar - 11:00:03 10° W 11:05:22 17° SW 11:10:44 10° SSW daylight
04 Mar - 22:06:39 10° SE 22:10:28 13° ESE 22:14:14 10° E night (unlit)
05 Mar - 00:04:40 10° SSW 00:14:23 62° SE 00:23:45 10° ENE visible
05 Mar - 02:10:20 10° W 02:19:41 49° NNW 02:28:46 10° NE visible
05 Mar - 04:18:48 10° WNW 04:26:49 29° N 04:34:41 10° NE daylight
05 Mar - 06:25:30 10° NW 06:34:13 41° NNE 06:42:49 10° E daylight
05 Mar - 08:30:32 10° NW 08:39:50 78° SW 08:49:08 10° SE daylight
05 Mar - 10:38:02 10° W 10:43:47 18° SW 10:49:34 10° SSW daylight
05 Mar - 21:46:01 10° SE 21:48:52 11° ESE 21:51:42 10° ESE night (unlit)
05 Mar - 23:43:03 10° SSW 23:52:43 58° SE 00:02:04 10° ENE visible
06 Mar - 01:48:32 10° WSW 01:57:57 51° NNW 02:07:07 10° NE visible
06 Mar - 03:56:58 10° WNW 04:05:02 29° N 04:12:57 10° NE daylight
06 Mar - 06:03:48 10° NW 06:12:29 39° NNE 06:21:02 10° E daylight
06 Mar - 08:08:52 10° NW 08:18:12 82° SW 08:27:31 10° SE daylight
06 Mar - 10:16:04 10° W 10:22:11 20° SW 10:28:21 10° SSW daylight
06 Mar - 21:26:06 10° SE 21:27:15 10° ESE 21:28:24 10° ESE night (unlit)
06 Mar - 23:21:29 10° SSW 23:31:04 55° SE 23:40:23 10° ENE visible
07 Mar - 01:26:43 10° WSW 01:36:14 53° NNW 01:45:29 10° NE visible
07 Mar - 03:35:08 10° WNW 03:43:15 30° N 03:51:12 10° NE visible
07 Mar - 05:42:07 10° NW 05:50:45 38° NNE 05:59:14 10° E daylight
07 Mar - 07:47:11 10° NW 07:56:34 86° SW 08:05:53 10° SE daylight
07 Mar - 09:54:08 10° W 10:00:36 21° SW 10:07:06 10° S daylight
07 Mar - 22:59:54 10° SSW 23:09:26 52° SE 23:18:40 10° ENE visible
